Location: Fontevrault
(47.1823°N, 0.0493°E)
Time: 04:17:18
(UTC+00:00)

Meteor 1-21 Rocket - Pass Details

Date: 30 October 2021
Orbit: 834 x 907 km, 81.2° (Epoch: 07 December)

Event Time Altitude Azimuth Distance (km) Brightness Sun altitude
Rises 18:33:13 0° 331° (NNW) 3,535 7.8 -18.7°
Reaches altitude 10° 18:37:24 10° 302° (WNW) 2,595 7.6 -19.4°
Maximum altitude 18:39:32 12° 281° (W) 2,444 7.7 -19.7°
Drops below altitude 10° 18:41:40 10° 259° (W) 2,591 7.9 -20.1°
Sets 18:45:51 0° 231° (SW) 3,523 8.2 -20.8°
